Location: *
(37.5724°S, 58.0067°E)
Time: 05:42:01
(UTC+00:00)

Cosmos 1933 Rocket - Pass Details

Date: 24 January 2021
Orbit: 607 x 630 km, 82.5° (Epoch: 06 March)

Event Time Altitude Azimuth Distance (km) Brightness Sun altitude
Rises 19:08:42 0° 185° (S) 2,959 8.1 -31.0°
Reaches altitude 10° 19:10:59 10° 182° (S) 2,042 7.0 -31.1°
Enters shadow 19:13:31 32° 173° (S) 1,092 5.2 -31.3°
